Home   Weather   Atqasuk   Past weeks
Flag for USA

Past Weather in Atqasuk, Alaska, USA — Yesterday and Last 2 Weeks

Now
52 °F

Mostly cloudy.


Feels Like: 50 °F
Forecast: 75 / 53 °F
Wind: 6 mph from Southeast

Location: Post Rogers Memorial Airport

Current Time: Jul 23, 2019 at 4:00:37 am

Latest Report: Jul 23, 2019 at 2:53 am


Visibility: 9 mi

Pressure: 30.08 "Hg

Humidity: 86%

Dew Point: 48 °F

Location of AtqasukLocation

Past Weather in Atqasuk — Graph

°F

Atqasuk Temperature Yesterday

Maximum temperature yesterday: 55 °F (at 12:09 pm)
Minimum temperature yesterday: 51 °F (at 3:24 am)
Average temperature yesterday: 53 °F

High & Low Weather Summary for the Past Weeks

 TemperatureHumidityPressure
High64 °F (Jul 13, 1:53 pm)100% (Jul 8, 7:53 am)30.16 "Hg (Jul 8, 7:53 am)
Low39 °F (Jul 11, 3:53 am)57% (Jul 11, 2:53 pm)29.43 "Hg (Jul 16, 10:53 am)
Average48 °F85%29.82 "Hg
* Reported Jul 8 2:53 am — Jul 23 2:53 am, Atqasuk. Weather by CustomWeather, © 2019

Note: Actual official high and low records may vary slightly from our data, if they occured in-between our weather recording intervals... More about our weather records

Advertising

Atqasuk Weather History for the Previous 24 Hours

Scroll right to see more
 ConditionsComfort  
Time TempWeatherWind HumidityBarometerVisibility
2:53 am
Tue, Jul 23
52 °FMostly cloudy.6 mph86%30.08 "Hg9 mi
2:27 am53 °FMore clouds than sun.5 mph83%30.08 "Hg9 mi
1:53 am53 °FOvercast.6 mph83%30.08 "Hg9 mi
1:31 am53 °FOvercast.6 mph83%30.08 "Hg10 mi
12:53 am53 °FOvercast.5 mph83%30.09 "Hg9 mi
11:53 pm
Mon, Jul 22
54 °FOvercast.6 mph77%30.08 "Hg10 mi
10:53 pm54 °FOvercast.5 mph74%30.07 "Hg10 mi
9:53 pm54 °FMostly cloudy.3 mph72%30.06 "Hg10 mi
8:53 pm54 °FOvercast.6 mph72%30.06 "Hg10 mi
7:53 pm54 °FOvercast.5 mph74%30.06 "Hg9 mi
6:53 pm55 °FOvercast.7 mph72%30.06 "Hg9 mi
5:53 pm54 °FOvercast.9 mph74%30.06 "Hg9 mi
4:53 pm55 °FOvercast.14 mph72%30.06 "Hg9 mi
3:53 pm55 °FOvercast.9 mph74%30.06 "Hg9 mi
2:53 pm54 °FOvercast.13 mph74%30.05 "Hg8 mi
1:53 pm54 °FPartly sunny.13 mph77%30.04 "Hg7 mi
12:53 pm54 °FMore clouds than sun.14 mph80%30.02 "Hg8 mi
12:09 pm55 °FMostly cloudy.12 mph87%30.02 "Hg10 mi
11:53 am54 °FCloudy.15 mph93%30.01 "Hg9 mi
11:20 am53 °FLow clouds.12 mph93%30.00 "Hg8 mi
10:53 am53 °FFog.8 mph93%29.99 "Hg3 mi
9:53 am53 °FLight rain. Fog.8 mph93%29.98 "Hg2 mi
9:43 am53 °FLight rain. Fog.8 mph93%29.98 "Hg3 mi
8:53 am53 °FOvercast.3 mph96%29.98 "Hg9 mi
7:53 am53 °FOvercast.6 mph93%29.97 "Hg10 mi
6:53 am53 °FOvercast.7 mph93%29.96 "Hg10 mi
5:53 am52 °FMostly cloudy.6 mph93%29.95 "Hg10 mi
5:21 am52 °FCloudy.5 mph93%29.95 "Hg10 mi
4:53 am52 °FMostly cloudy.5 mph93%29.96 "Hg10 mi
Weather by CustomWeather, © 2019

See weather overview